Weather History for KOFF - January, 2013

Change the Weather History Date:

Wednesday, January 16, 2013

  Actual Average Record
Temperature  
Mean Temperature 36 °F -  
Max Temperature 51 °F 31 °F 61 °F (2015)
Min Temperature 20 °F 14 °F -11 °F (2007)
Degree Days  
Heating Degree Days 30    
Moisture  
Dew Point 25 °F    
Average Humidity 68    
Maximum Humidity 86    
Minimum Humidity 48    
Precipitation  
Precipitation 0.00 in - - ()
Sea Level Pressure  
Sea Level Pressure 30.03 in    
Wind  
Wind Speed 7 mph (West)    
Max Wind Speed 16 mph    
Max Gust Speed -    
Visibility 10 miles    
Events      
Averages and records for this station are not official NWS values.
T = Trace of Precipitation, MM = Missing Value Source: NWS Daily Summary

Daily Weather History Graph

Daily Weather History Graph

Search for Another Location

Airport or City:

Trip Planner

Search our weather history database for the weather conditions in past years. The results will help you decide how hot, cold, wet, or windy it might be!

Date:

Astronomy

Jan. 16, 2013 Rise Set
Actual Time 7:46 AM CST 5:21 PM CST
Civil Twilight 7:15 AM CST 5:51 PM CST
Nautical Twilight 6:41 AM CST 6:25 PM CST
Astronomical Twilight 6:09 AM CST 6:58 PM CST
Moon 10:19 AM CST (1/16) 11:17 PM CST (1/16)
Length of Visible Light 10h 35m
Length of Day
9h 35m
Waxing Crescent, 28% of the Moon is Illuminated
Jan 16
Waxing Crescent
Jan 18
First Quarter
Jan 26
Full
Feb 3
Last Quarter
Feb 10
New

Hourly Weather History & Observations

Time (CST) Temp. Windchill Dew Point Humidity Pressure Visibility Wind Dir Wind Speed Gust Speed Precip Events Conditions
12:55 AM 21.9 °F 13.4 °F 16.7 °F 80% 30.07 in 10.0 mi South 6.9 mph - N/A   Clear
1:55 AM 21.0 °F 12.4 °F 16.7 °F 83% 30.04 in 10.0 mi South 6.9 mph - N/A   Clear
2:55 AM 20.7 °F 11.9 °F 16.3 °F 83% 30.03 in 10.0 mi SE 6.9 mph - N/A   Clear
3:55 AM 20.5 °F 12.8 °F 16.7 °F 85% 29.99 in 10.0 mi SE 5.8 mph - N/A   Partly Cloudy
4:55 AM 22.6 °F - 18.0 °F 82% 29.98 in 10.0 mi Calm Calm - N/A   Mostly Cloudy
5:27 AM 24.8 °F 16.9 °F 17.6 °F 74% 29.96 in 10.0 mi SSW 6.9 mph - N/A   Mostly Cloudy
5:55 AM 25.3 °F 21.1 °F 17.8 °F 73% 29.97 in 10.0 mi Variable 3.5 mph - N/A   Overcast
6:08 AM 24.8 °F - 17.6 °F 74% 29.96 in 10.0 mi Calm Calm - N/A   Overcast
6:55 AM 27.0 °F 21.6 °F 19.2 °F 73% 29.97 in 10.0 mi SW 4.6 mph - N/A   Overcast
7:48 AM 28.4 °F 22.2 °F 21.2 °F 74% 29.99 in 10.0 mi SW 5.8 mph - N/A   Mostly Cloudy
7:55 AM 28.0 °F 24.2 °F 20.3 °F 73% 29.99 in 10.0 mi SSW 3.5 mph - 0.00 in   Mostly Cloudy
8:05 AM 28.4 °F 23.3 °F 21.2 °F 74% 29.99 in 10.0 mi SSW 4.6 mph - N/A   Mostly Cloudy
8:55 AM 30.2 °F 24.3 °F 22.1 °F 72% 29.99 in 10.0 mi SSW 5.8 mph - 0.00 in   Scattered Clouds
9:55 AM 35.6 °F 29.9 °F 25.7 °F 67% 29.99 in 10.0 mi West 6.9 mph - N/A   Clear
10:55 AM 42.6 °F 36.8 °F 29.1 °F 59% 29.98 in 10.0 mi West 10.4 mph - N/A   Clear
11:55 AM 47.3 °F - 30.9 °F 53% 29.97 in 10.0 mi WNW 10.4 mph - N/A   Clear
12:55 PM 50.2 °F - 32.0 °F 50% 29.96 in 10.0 mi West 11.5 mph - N/A   Clear
1:55 PM 51.1 °F - 31.8 °F 48% 29.96 in 10.0 mi West 16.1 mph - N/A   Clear
2:55 PM 51.1 °F - 31.8 °F 48% 29.98 in 10.0 mi West 9.2 mph - N/A   Clear
3:55 PM 51.1 °F - 32.0 °F 48% 30.00 in 10.0 mi West 8.1 mph - N/A   Clear
4:55 PM 48.7 °F - 31.8 °F 52% 30.01 in 10.0 mi West 6.9 mph - N/A   Clear
5:55 PM 37.6 °F 32.3 °F 28.4 °F 69% 30.06 in 10.0 mi NW 6.9 mph - N/A   Clear
6:55 PM 45.5 °F 39.2 °F 30.4 °F 56% 30.11 in 10.0 mi NNW 13.8 mph - N/A   Clear
7:55 PM 42.4 °F 36.1 °F 30.7 °F 63% 30.15 in 10.0 mi NW 11.5 mph - N/A   Clear
8:55 PM 41.0 °F 34.7 °F 30.9 °F 67% 30.18 in 10.0 mi NNW 10.4 mph - N/A   Mostly Cloudy
9:55 PM 39.9 °F 33.9 °F 31.3 °F 71% 30.18 in 10.0 mi North 9.2 mph - N/A   Clear
10:55 PM 38.1 °F 31.2 °F 31.8 °F 78% 30.22 in 10.0 mi NNW 10.4 mph - N/A   Clear
11:55 PM 35.1 °F 27.9 °F 31.3 °F 86% 30.25 in 10.0 mi North 9.2 mph - N/A   Clear